Location: Владивосток
(43.1151°N, 131.8856°E)
Time: 01:19:43
(UTC+10:00)

CZ-6A DEB - Visible Passes

Search period start: 16 December 2025 00:00
Search period end: 26 December 2025 00:00
Orbit: 721 x 816 km, 98.7° (Epoch: 14 December)

Date Brightness Start Highest point End Pass type
(mag) Time Alt. Az. Time Alt. Az. Time Alt. Az.
16 Dec ? 20:00:17 14° N 20:00:17 14° N 20:00:56 10° N visible
17 Dec ? 08:01:33 10° ENE 08:03:42 13° E 08:05:52 10° ESE visible
17 Dec ? 19:24:07 12° NNE 19:24:07 12° NNE 19:24:33 10° NNE visible
18 Dec ? 20:28:13 12° NNW 20:28:13 12° NNW 20:28:38 10° NNW visible
19 Dec ? 19:52:02 13° N 19:52:02 13° N 19:52:37 10° N visible
20 Dec ? 07:54:39 10° E 07:55:24 10° E 07:56:09 10° E visible
20 Dec ? 19:15:50 11° NNE 19:15:50 11° NNE 19:16:05 10° NNE visible
21 Dec ? 20:19:54 13° N 20:19:54 13° N 20:20:23 10° N visible
22 Dec ? 19:43:41 13° N 19:43:41 13° N 19:44:15 10° N visible
23 Dec ? 19:07:27 10° NNE 19:07:27 10° NNE 19:07:31 10° NNE visible
23 Dec ? 20:47:43 11° NNW 20:47:43 11° NNW 20:47:54 10° NNW visible
24 Dec ? 20:11:28 14° N 20:11:28 14° N 20:12:05 10° N visible
25 Dec ? 08:11:53 10° NE 08:14:57 16° E 08:18:00 10° SE visible
25 Dec ? 19:35:13 13° NNE 19:35:13 13° NNE 19:35:50 10° N visible
